Location: ????????
(55.6189°N, 38.3031°E)
Time: 15:42:37
(UTC+00:00)

ALOS - Pass Details

Date: 15 November 2019
Orbit: 683 x 685 km, 97.8° (Epoch: 10 December)

Event Time Altitude Azimuth Distance (km) Brightness Sun altitude
Rises 03:40:07 0° 12° (NNE) 3,064 5.6 -11.1°
Reaches altitude 10° 03:42:23 10° 9° (N) 2,144 4.7 -10.8°
Maximum altitude 03:46:58 56° 292° (WNW) 816 2.3 -10.2°
Drops below altitude 10° 03:51:32 10° 214° (SW) 2,129 4.7 -9.6°
Sets 03:53:47 0° 211° (SSW) 3,040 5.5 -9.3°
